[[{"header":{"parameterUnit":"m.s-1","parameterCategory":1,"la1":30.2991,"la2":30.254,"lo1":-89.0895,"lo2":-89.0444,"dy":0.0017,"dx":0.0017,"nx":28,"ny":28,"refTime":"2023-09-20T03:00:00:Z","depth":0,"parameterNumber":2,"parameterNumberName":"U-component_of_WINDS"},"data":[0,0,0,0,0,0,0,0,0,0,0,0,0,0,0,0,0,0,0,0,0,0,0,0,0,0,0,0,0,0,0,0,0,0,0,0,0,0,0,0,0,0,0,0,0,0,0,0,0,0,0,0,0,0,0,0,0,0,-4.2149,-4.2149,0,-4.208,-4.2079,-4.2078,-4.1847,-4.1842,-4.1837,-4.1832,-4.1767,-4.177,-4.1773,0,0,0,0,0,0,0,0,0,0,0,0,0,-4.2088,-4.209,-4.2149,-4.2148,-4.2148,-4.208,-4.2079,-4.2078,-4.1848,-4.1842,-4.1835,-4.1829,-4.1766,-4.177,-4.1774,0,0,0,0,0,0,0,0,0,0,0,0,0,-4.2076,-4.2091,-4.215,-4.2024,-4.2012,-4.208,-4.2079,-4.2078,-4.1849,-4.1841,-4.1834,-4.1826,-4.1765,-4.177,-4.1774,-4.1959,0,0,-4.1789,-4.1791,0,0,0,0,0,0,0,0,-4.2077,-4.2079,-4.2044,-4.2033,-4.202,-4.1964,-4.2033,-4.2038,-4.1851,-4.1912,-4.1832,-4.1823,-4.1839,-4.1838,-4.1842,-4.1956,-4.1953,-4.1789,-4.1792,-4.1794,-4.1795,0,0,0,0,0,0,0,-4.2078,-4.2081,-4.2122,-4.2043,-4.2029,-4.1973,-4.1963,-4.2033,-4.192,-4.1906,-4.1889,-4.1883,-4.1831,-4.1838,-4.1839,-4.1952,-4.1789,-4.1793,-4.1796,-4.1798,-4.2214,-4.2221,0,0,0,0,0,0,-4.2096,-4.2083,-4.2124,-4.212,-4.203,-4.1981,-4.1969,-4.199,-4.1919,-4.19,-4.189,-4.1873,-4.1834,-4.1833,-4.1836,-4.2045,-4.1794,-4.1798,-4.1801,-4.2206,-4.2215,-4.2224,0,0,0,0,0,0,-4.2096,-4.2102,-4.2127,-4.2097,-4.2095,-4.199,-4.2015,-4.1993,-4.1998,-4.1907,-4.1886,-4.1917,-4.1828,-4.1829,-4.1929,-4.204,-4.18,-4.1805,-4.2196,-4.2209,-4.222,-4.2469,0,0,0,0,0,0,-4.2095,-4.2103,-4.2171,-4.21,-4.2098,-4.2221,-4.2022,-4.1997,-4.2007,-4.1983,-4.1927,-4.191,-4.1822,-4.1924,-4.1934,-4.2042,-4.1808,-4.2185,-4.2201,-4.2216,-4.2451,-4.2489,-4.2521,0,0,0,0,0,-4.2093,-4.2246,-4.2176,-4.2182,-4.2181,-4.2228,-4.2227,-4.212,-4.2017,-4.2085,-4.2025,-4.1912,-4.2027,-4.1936,-4.1946,-4.2057,-4.2178,-4.2197,-4.2215,-4.2435,-4.2481,-4.252,0,0,0,0,0,0,-4.2336,-4.2235,-4.2156,-4.2289,-4.2269,-4.2189,-4.2271,-4.2173,-4.2184,-4.2162,-4.2031,-4.202,-4.2139,-4.2108,-4.2009,-4.2232,-4.2083,-4.2105,-4.2247,-4.2291,-4.2325,-4.233,-4.1812,0,0,0,0,0,-4.2405,-4.245,-4.2359,-4.2487,-4.248,-4.2379,-4.2395,-4.2314,-4.2289,-4.2279,-4.2227,-4.2209,-4.224,-4.2264,-4.2288,-4.2446,-4.2429,-4.2527,-4.2562,-4.2592,-4.2612,-4.2691,-4.2733,-4.2285,-4.2285,-4.2285,0,0,-4.2548,-4.2498,-4.2535,-4.2534,-4.2508,-4.2559,-4.2373,-4.2435,-4.2471,-4.2289,-4.2379,-4.2342,-4.2312,-4.2442,-4.2496,-4.2419,-4.2732,-4.2615,-4.264,-4.2643,-4.2715,-4.2757,-4.2795,-4.2298,-4.2295,-4.2293,0,0,-4.2834,-4.2802,-4.2902,-4.288,-4.2843,-4.2774,-4.2799,-4.2733,-4.27,-4.2788,-4.2652,-4.2695,-4.2753,-4.2736,-4.2736,-4.3016,-4.2911,-4.3028,-4.3211,-4.3291,-4.3326,-4.3357,-4.3455,-4.3492,-4.3048,-4.3049,-4.3049,0,-4.3018,-4.3086,-4.2967,-4.3037,-4.304,-4.2876,-4.2977,-4.2963,-4.2937,-4.2944,-4.2858,-4.2925,-4.2894,-4.3016,-4.3085,-4.309,-4.3115,-4.3033,-4.333,-4.336,-4.3387,-4.3479,-4.3517,-4.3063,-4.3061,-4.306,-4.3058,0,-4.3312,-4.3363,-4.3449,-4.3424,-4.3438,-4.3524,-4.3419,-4.3448,-4.3366,-4.3307,-4.3399,-4.3356,-4.3367,-4.3391,-4.3314,-4.3503,-4.3456,-4.3353,-4.3201,-4.3446,-4.353,-4.3565,-4.3083,-4.3078,-4.3074,-4.307,0,0,-4.3749,-4.3657,-4.369,-4.3676,-4.3623,-4.366,-4.3739,-4.3748,-4.3774,-4.3763,-4.3825,-4.3878,-4.378,-4.378,-4.37,-4.377,-4.3992,-4.3657,-4.3654,-4.3719,-4.4197,-4.4275,-4.4318,-4.3923,-4.393,-4.3935,-4.4199,0,-4.4019,-4.4145,-4.404,-4.4187,-4.4231,-4.4075,-4.4144,-4.412,-4.4067,-4.4099,-4.4041,-4.4079,-4.3949,-4.3948,-4.401,-4.3952,-4.4086,-4.3932,-4.3981,-4.3984,-4.3991,-4.4362,-4.4443,-4.4695,-4.4232,-4.4237,-4.4241,0,-4.4351,-4.435,-4.4501,-4.4435,-4.445,-4.4513,-4.4512,-4.4544,-4.4514,-4.447,-4.447,-4.437,-4.4444,-4.4297,-4.4397,-4.4294,-4.4309,-4.4284,-4.4291,-4.429,-4.4127,-4.437,-4.4773,-4.4811,-4.4293,-4.4289,-4.4285,0,-4.4652,-4.469,-4.4783,-4.4777,-4.4704,-4.4752,-4.4724,-4.4686,-4.4697,-4.4698,-4.4704,-4.4715,-4.4721,-4.4732,-4.4638,-4.4539,-4.4751,-4.4595,-4.4717,-4.472,-4.4767,-4.4765,-4.5178,-4.4781,-4.478,-4.4779,-4.4778,0,-4.4963,-4.5061,-4.4917,-4.4975,-4.508,-4.4959,-4.5067,-4.5024,-4.4991,-4.5039,-4.4907,-4.4955,-4.4829,-4.4864,-4.4792,-4.4886,-4.489,-4.4858,-4.4837,-4.4869,-4.4873,-4.4875,-4.4854,-4.4789,-4.4787,-4.4785,-4.4783,0,-4.5317,-4.5224,-4.5316,-4.5239,-4.5222,-4.5303,-4.5237,-4.5288,-4.5226,-4.5289,-4.5297,-4.5201,-4.5235,-4.5143,-4.5165,-4.5116,-4.5251,-4.5203,-4.5261,-4.5245,-4.5372,-4.5361,-4.5799,-4.5849,-4.5422,-4.5427,-4.543,0,-4.552,-4.5591,-4.5521,-4.5541,-4.552,-4.5557,-4.5566,-4.5451,-4.5468,-4.5438,-4.5494,-4.5517,-4.5529,-4.5593,-4.5527,-4.5543,-4.5493,-4.5646,-4.5495,-4.5524,-4.5494,-4.549,-4.5496,-4.5677,-4.5682,-4.5686,-4.569,0,-4.5891,-4.5841,-4.5859,-4.5863,-4.5878,-4.5875,-4.5864,-4.589,-4.5766,-4.5792,-4.5824,-4.5834,-4.5855,-4.588,-4.5881,-4.5855,-4.5753,-4.5738,-4.5766,-4.5798,-4.5828,-4.5812,-4.5344,-4.5728,-4.5724,-4.5721,-4.5719,-4.5718,-4.6174,-4.6229,-4.6187,-4.6212,-4.6191,-4.6183,-4.6226,-4.6169,-4.6193,-4.6198,-4.613,-4.6177,-4.6145,-4.6136,-4.612,-4.6156,-4.6087,-4.6129,-4.6139,-4.6151,-4.6171,-4.5824,-4.6157,-4.6155,-4.6154,-4.6153,-4.6152,0,-4.6536,-4.6501,-4.6525,-4.6511,-4.6531,-4.6431,-4.6413,-4.6437,-4.6479,-4.6456,-4.647,-4.6508,-4.6532,-4.6467,-4.6482,-4.6523,-4.6477,-4.6531,-4.6526,-4.6521,-4.6233,-4.6206,-4.6568,-4.6568,-4.6568,-4.6568,-4.6568,-4.6568,-4.6727,-4.6813,-4.6759,-4.6835,-4.6799,-4.6841,-4.684,-4.6832,-4.6813,-4.686,-4.6878,-4.6834,-4.6795,-4.6806,-4.6824,-4.6804,-4.6815,-4.6886,-4.685,-4.6582,-4.6542,-4.6503,-4.6476,-4.6889,-4.689,-4.7134,-4.7136,-4.7138]},{"header":{"parameterUnit":"m.s-1","parameterCategory":1,"la1":30.2991,"la2":30.254,"lo1":-89.0895,"lo2":-89.0444,"dy":0.0017,"dx":0.0017,"nx":28,"ny":28,"refTime":"2023-09-20T03:00:00:Z","depth":0,"parameterNumber":3,"parameterNumberName":"V-component_of_WINDS"},"data":[0,0,0,0,0,0,0,0,0,0,0,0,0,0,0,0,0,0,0,0,0,0,0,0,0,0,0,0,0,0,0,0,0,0,0,0,0,0,0,0,0,0,0,0,0,0,0,0,0,0,0,0,0,0,0,0,0,0,-1.0887,-1.0887,0,-1.0937,-1.0937,-1.0938,-1.0974,-1.0975,-1.0975,-1.0975,-1.1025,-1.1026,-1.1027,0,0,0,0,0,0,0,0,0,0,0,0,0,-1.0819,-1.0821,-1.0887,-1.0887,-1.0888,-1.0937,-1.0937,-1.0938,-1.0974,-1.0975,-1.0975,-1.0976,-1.1024,-1.1026,-1.1027,0,0,0,0,0,0,0,0,0,0,0,0,0,-1.0857,-1.0821,-1.0887,-1.0912,-1.0915,-1.0936,-1.0937,-1.0938,-1.0974,-1.0975,-1.0975,-1.0976,-1.1024,-1.1025,-1.1027,-1.1027,0,0,-1.1032,-1.1032,0,0,0,0,0,0,0,0,-1.0855,-1.0859,-1.0908,-1.091,-1.0914,-1.095,-1.0932,-1.0968,-1.0974,-1.0952,-1.0975,-1.0976,-1.0999,-1.1003,-1.1011,-1.1029,-1.1031,-1.1032,-1.1033,-1.1033,-1.1034,0,0,0,0,0,0,0,-1.0852,-1.0857,-1.0906,-1.0908,-1.0912,-1.092,-1.0926,-1.0939,-1.0972,-1.0954,-1.0957,-1.0962,-1.1001,-1.101,-1.1013,-1.1032,-1.1032,-1.1033,-1.1034,-1.1035,-1.1049,-1.1048,0,0,0,0,0,0,-1.0846,-1.0855,-1.0905,-1.0908,-1.0885,-1.0921,-1.0927,-1.0938,-1.0972,-1.0978,-1.0962,-1.0964,-1.1007,-1.1011,-1.1014,-1.1015,-1.1033,-1.1035,-1.1036,-1.1049,-1.1049,-1.1048,0,0,0,0,0,0,-1.0844,-1.085,-1.0903,-1.0882,-1.089,-1.0921,-1.0933,-1.0938,-1.0947,-1.0978,-1.0984,-1.0964,-1.1007,-1.1012,-1.1023,-1.1017,-1.1035,-1.1037,-1.105,-1.1049,-1.1048,-1.1016,0,0,0,0,0,0,-1.0842,-1.0849,-1.085,-1.0882,-1.089,-1.0911,-1.0932,-1.0939,-1.095,-1.0953,-1.0982,-1.0988,-1.1008,-1.102,-1.1024,-1.1019,-1.1038,-1.1051,-1.105,-1.1049,-1.1018,-1.1014,-1.1011,0,0,0,0,0,-1.084,-1.084,-1.085,-1.0856,-1.0893,-1.0911,-1.0916,-1.094,-1.0949,-1.095,-1.0969,-1.0987,-1.1017,-1.1021,-1.1026,-1.1021,-1.1051,-1.105,-1.1049,-1.1019,-1.1015,-1.1011,0,0,0,0,0,0,-1.0807,-1.0844,-1.0857,-1.0867,-1.0885,-1.0917,-1.0919,-1.0935,-1.0951,-1.0953,-1.0982,-1.0988,-1.0995,-1.1009,-1.1013,-1.1021,-1.1036,-1.1036,-1.1012,-1.1008,-1.1005,-1.1001,-1.1039,0,0,0,0,0,-1.0801,-1.0813,-1.0845,-1.0851,-1.0859,-1.0887,-1.0896,-1.0913,-1.0933,-1.0941,-1.0962,-1.098,-1.0993,-1.1001,-1.1016,-1.102,-1.1026,-1.1019,-1.1015,-1.1013,-1.1012,-1.1013,-1.101,-1.1044,-1.1044,-1.1044,0,0,-1.0788,-1.081,-1.0817,-1.0845,-1.0861,-1.0872,-1.0894,-1.0905,-1.0913,-1.0943,-1.0954,-1.0969,-1.0991,-1.0998,-1.1002,-1.101,-1.1003,-1.1011,-1.1009,-1.101,-1.1011,-1.1008,-1.1005,-1.1043,-1.1044,-1.1044,0,0,-1.0771,-1.079,-1.0796,-1.0811,-1.0835,-1.0854,-1.0855,-1.0884,-1.0895,-1.0906,-1.0928,-1.0937,-1.096,-1.0975,-1.0985,-1.097,-1.0985,-1.0973,-1.0956,-1.0957,-1.0954,-1.0952,-1.0945,-1.0942,-1.0973,-1.0973,-1.0972,0,-1.0753,-1.0771,-1.0797,-1.0806,-1.0817,-1.0844,-1.0849,-1.0862,-1.089,-1.0896,-1.0905,-1.0933,-1.0949,-1.0959,-1.0955,-1.0963,-1.0964,-1.097,-1.0953,-1.0951,-1.0949,-1.0942,-1.094,-1.0971,-1.0971,-1.0971,-1.0971,0,-1.0746,-1.0758,-1.076,-1.0785,-1.0796,-1.0803,-1.0829,-1.0836,-1.0851,-1.0868,-1.0878,-1.0898,-1.0916,-1.092,-1.0935,-1.093,-1.0934,-1.0947,-1.0963,-1.0943,-1.0938,-1.0936,-1.0968,-1.0969,-1.097,-1.097,0,0,-1.0712,-1.0749,-1.075,-1.076,-1.0788,-1.0797,-1.0804,-1.0821,-1.0826,-1.0844,-1.0849,-1.0867,-1.0878,-1.089,-1.0906,-1.0907,-1.0891,-1.092,-1.0921,-1.0913,-1.0886,-1.0875,-1.0872,-1.0902,-1.0902,-1.0901,-1.0883,0,-1.0699,-1.0714,-1.0736,-1.0743,-1.0753,-1.0777,-1.0783,-1.0799,-1.0814,-1.0824,-1.0841,-1.0852,-1.0867,-1.0874,-1.0876,-1.0893,-1.0886,-1.0895,-1.0906,-1.0906,-1.0899,-1.087,-1.0859,-1.0841,-1.0882,-1.0881,-1.0881,0,-1.0686,-1.0701,-1.0709,-1.0733,-1.0738,-1.0743,-1.0759,-1.0769,-1.0787,-1.0798,-1.0809,-1.0827,-1.0834,-1.0847,-1.0856,-1.0861,-1.0867,-1.0876,-1.0876,-1.0877,-1.0892,-1.0869,-1.0836,-1.0833,-1.0878,-1.0878,-1.0879,0,-1.0658,-1.068,-1.0688,-1.0696,-1.0725,-1.0727,-1.0739,-1.0758,-1.0766,-1.078,-1.0785,-1.0799,-1.0807,-1.0817,-1.0837,-1.0846,-1.0843,-1.0859,-1.0851,-1.085,-1.085,-1.0849,-1.0816,-1.0854,-1.0854,-1.0854,-1.0854,0,-1.0641,-1.0644,-1.0675,-1.068,-1.0684,-1.0707,-1.071,-1.0724,-1.074,-1.0747,-1.0768,-1.0774,-1.08,-1.0808,-1.0824,-1.0827,-1.0831,-1.0839,-1.0843,-1.0837,-1.0835,-1.0841,-1.0842,-1.0854,-1.0854,-1.0854,-1.0854,0,-1.0611,-1.0632,-1.0641,-1.0667,-1.0673,-1.0674,-1.0696,-1.07,-1.0715,-1.0723,-1.0726,-1.075,-1.076,-1.0781,-1.0797,-1.0807,-1.0807,-1.0815,-1.0801,-1.0803,-1.0794,-1.0794,-1.0762,-1.0758,-1.0799,-1.0799,-1.0799,0,-1.0598,-1.0602,-1.0627,-1.0632,-1.0643,-1.0652,-1.066,-1.0683,-1.069,-1.0709,-1.0711,-1.0722,-1.0733,-1.0748,-1.0766,-1.0778,-1.0785,-1.0773,-1.0787,-1.078,-1.0783,-1.0783,-1.0782,-1.077,-1.0769,-1.0769,-1.0769,0,-1.0573,-1.0583,-1.0594,-1.0607,-1.0616,-1.0628,-1.0641,-1.0644,-1.0669,-1.0676,-1.0686,-1.0694,-1.071,-1.072,-1.0734,-1.0745,-1.076,-1.0764,-1.0762,-1.0756,-1.0747,-1.075,-1.0791,-1.0765,-1.0765,-1.0765,-1.0765,-1.0766,-1.0551,-1.0554,-1.0572,-1.0582,-1.0594,-1.0605,-1.0609,-1.0624,-1.0633,-1.0648,-1.066,-1.0669,-1.0684,-1.0704,-1.0714,-1.072,-1.0728,-1.0726,-1.0726,-1.0725,-1.0721,-1.0746,-1.0723,-1.0723,-1.0723,-1.0723,-1.0723,0,-1.0526,-1.0538,-1.0547,-1.0564,-1.0571,-1.0585,-1.0599,-1.0604,-1.0611,-1.0625,-1.0634,-1.0644,-1.0654,-1.0672,-1.0683,-1.0684,-1.0691,-1.0686,-1.0686,-1.0688,-1.0714,-1.0714,-1.068,-1.068,-1.068,-1.068,-1.068,-1.068,-1.0514,-1.0519,-1.053,-1.054,-1.0552,-1.056,-1.0567,-1.0576,-1.0586,-1.0597,-1.0605,-1.0616,-1.0631,-1.0643,-1.0651,-1.0656,-1.0659,-1.0651,-1.0658,-1.0682,-1.0686,-1.069,-1.069,-1.0652,-1.0652,-1.0631,-1.0631,-1.0631]}]]